Regional Weather Roundup
Issued by NWS

Home | Current Version | Previous Version | Text Only | Print | Product List | Glossary Off
Versions: 1 2 3 4 5 6 7 8 9 10 11 12 13 14 15 16 17 18 19 20 21 22 23 24 25 26 27 28 29 30 31 32 33 34 35 36 37 38 39 40 41 42 43 44 45 46 47 48 49 50

000
ASUS43 KMPX 281010
RWRMN
WEATHER ROUNDUP FOR MINNESOTA
NATIONAL WEATHER SERVICE TWIN CITIES/CHANHASSEN MN
500 AM CDT SAT MAR 28 2015


NOTE: "FAIR" INDICATES FEW OR NO CLOUDS BELOW 12,000 FEET WITH NO
SIGNIFICANT WEATHER AND/OR OBSTRUCTIONS TO VISIBILITY. N/A MEANS
CURRENT SKY AND/OR WEATHER CONDITIONS ARE NOT AVAILABLE.

MNZ060>063-068>070-281100-
   Twin Cities Metro

CITY           SKY/WX    TMP DP  RH WIND       PRES   REMARKS
TWIN CITIES    MOCLDY    22   8  55 SE5       30.20S WCI  16
ST PAUL        CLEAR     22  13  68 CALM      30.21S
CRYSTAL        PTCLDY    22  12  65 CALM      30.18S
BLAINE         CLEAR     19  12  73 CALM      30.18F
LAKEVILLE      CLEAR     16  10  79 E3        30.19S
EDEN PRAIRIE   MOCLDY    23  10  57 SE6       30.18S WCI  16
SOUTH ST PAUL  PTCLDY    22  12  66 CALM      30.19F
LAKE ELMO      FAIR      19  14  79 CALM      30.20S
$$
MNZ001>005-007-008-013>017-022>024-027-028-281100-
   Northwest Minnesota

CITY           SKY/WX    TMP DP  RH WIND       PRES   REMARKS
BEMIDJI        CLEAR     13   9  83 CALM      30.12R
HALLOCK        CLEAR     21  18  86 SE9       30.09S WCI  11
ROSEAU         CLEAR     21  14  73 S5        30.11S WCI  15
WARROAD        CLEAR     19  16  86 CALM      30.11S
THIEF RVR FALL CLEAR     23  18  80 SE6       30.11S WCI  16
CROOKSTON      CLEAR     21  18  86 SE9       30.11F WCI  11
FOSSTON        CLEAR     19  14  79 SE5       30.12R WCI  13
DETROIT LAKES  CLEAR     23  18  80 SE6       30.12S WCI  16
MOORHEAD       CLEAR     25  19  80 SE9       30.12S WCI  15
PARK RAPIDS    CLEAR     20  12  71 S5        30.11S WCI  13
MAHNOMEN       FAIR      21  12  68 SE8       30.11S WCI  11
$$
MNZ006-009>011-018-025>026-281100-
   North Central Minnesota

CITY           SKY/WX    TMP DP  RH WIND       PRES   REMARKS
BAUDETTE       CLEAR     16  12  84 CALM      30.11R
FLAG ISLAND    CLEAR     14   9  79 CALM      30.11R
INTL FALLS     CLEAR     13   7  77 SE5       30.13R WCI   5
WASKISH        CLEAR     12  10  92 CALM      30.11F
BIG FORK       CLEAR     12   7  79 CALM      30.13S
LONGVILLE      CLEAR     12  10  92 CALM      30.14R
GRAND RAPIDS   CLEAR     18   5  57 SE5       30.13S WCI  11
CRANE LAKE     CLEAR      9   7  92 SE1       30.17S
ORR            CLEAR     14   7  73 CALM      30.11S
COOK           CLEAR      9   7  92 CALM      30.15R
WALKER         FAIR      19   9  64 CALM      30.12S
$$
MNZ012-019>021-037-281100-
   Northeast Minnesota

CITY           SKY/WX    TMP DP  RH WIND       PRES   REMARKS
DULUTH         CLEAR     18  12  77 SE3       30.15R
ELY            CLEAR      7   3  85 CALM      30.15R
HIBBING        CLEAR      6   2  83 CALM      30.15S
EVELETH        CLEAR     10   5  79 CALM      30.16S
DULUTH HARBOR  CLEAR     21  12  68 CALM      30.21S
TWO HARBORS    CLEAR     14   9  79 CALM      30.16S
SILVER BAY     CLEAR      9   3  78 CALM      30.17R
GRAND MARAIS     N/A     11   7  84 NW5       30.22S WCI   3
G MARAIS ARPRT PTCLDY    -2  -8  78 W5        30.14R WCI -12
$$
MNZ029>031-032-039>041-046>048-054>057-064-281100-
   West Central Minnesota

CITY           SKY/WX    TMP DP  RH WIND       PRES   REMARKS
FERGUS FALLS   CLEAR     25  16  68 SE9       30.15S WCI  15
WHEATON        MOCLDY    27  23  86 SE9       30.14S WCI  17
MORRIS         CLEAR     25  21  86 E7        30.12S WCI  17
ALEXANDRIA     CLOUDY    24  16  71 SE7       30.12F WCI  16
ELBOW LAKE     FAIR      23  18  80 SE7       30.12S WCI  15
WADENA         PTCLDY    19  14  79 SE3       30.12S
GLENWOOD       CLOUDY    25  18  74 SE5       30.13F WCI  19
APPLETON       MOCLDY    28  25  86 SE6       30.13S WCI  22
BENSON         PTCLDY    27  21  80 SE3       30.14R
ORTONVILLE     CLOUDY    28  25  86 SE9       30.11S WCI  20
MADISON        CLOUDY    28  25  86 SE5       30.13S WCI  23
WILLMAR        CLOUDY    27  19  74 SE7       30.16S WCI  19
$$
MNZ033>034-036-042>043-049>051-058-059-281100-
   Central Minnesota

CITY           SKY/WX    TMP DP  RH WIND       PRES   REMARKS
ST CLOUD       CLEAR     19  11  70 CALM      30.17S
SAUK CENTRE    CLOUDY    25  16  68 SE5       30.14S WCI  19
PAYNESVILLE    CLOUDY    22  14  70 E5        30.16R WCI  16
AITKIN         CLEAR     16   9  73 CALM      30.14S
PINE RIVER     CLEAR     16  10  79 CALM      30.17R
BRAINERD       CLEAR     14  10  84 CALM      30.16R
STAPLES        CLEAR     18  12  79 CALM      30.13F
LONG PRAIRIE   FAIR      23  14  68 CALM      30.14S
LITTLE FALLS   CLEAR     19  12  73 CALM      30.16S
LITCHFIELD     MOCLDY    25  16  68 CALM      30.16S
BUFFALO        FAIR      21  16  79 CALM      30.18F
MAPLE LAKE     MOCLDY    23  19  85 CALM      30.18S
$$
MNZ037-044-045-052-053-281100-
   East Central Minnesota

CITY           SKY/WX    TMP DP  RH WIND       PRES   REMARKS
PRINCETON      CLEAR     16  12  86 CALM      30.17S
MORA           CLEAR     18  14  86 CALM      30.19S
CAMBRIDGE      CLEAR     19  10  68 CALM      30.17R
RUSH CITY      CLEAR     15  13  88 CALM      30.19S
MOOSE LAKE     CLEAR     14  10  85 CALM      30.16S
HINCKLEY       FAIR      18  14  86 CALM      30.17S
CLOQUET        CLEAR     12  10  92 CALM      30.16S
MCGREGOR       CLEAR     16  10  79 CALM      30.16S
$$
MNZ071>073-080-081-089-090-097-098-281100-
   Southwest Minnesota

CITY           SKY/WX    TMP DP  RH WIND       PRES   REMARKS
MONTEVIDEO     CLOUDY    28  27  93 S6        30.15S WCI  22
GRANITE FALLS  CLOUDY    29  26  88 E5        30.16R WCI  24
CANBY          MOCLDY    26  25  95 SE5       30.13S WCI  20
MARSHALL       CLOUDY    28  23  80 SE7       30.13R WCI  21
REDWOOD FALLS  CLOUDY    30  26  85 E3        30.15R
OLIVIA         PTCLDY    27  23  86 E5        30.15R WCI  21
PIPESTONE      CLOUDY    28  27  93 S9        30.07F WCI  20
WINDOM         CLOUDY    28  27  93 CALM      30.13R
WORTHINGTON    CLOUDY    27  23  86 SE7       30.12R WCI  19
JACKSON        CLOUDY    30  28  93 SE5       30.13R WCI  25
TRACY          CLOUDY    29  27  94 S5        30.13R WCI  24
SLAYTON        CLOUDY    27  26  95 CALM      30.11S
$$
MNZ065>067-074>077-082>085-091>093-281100-
   South Central Minnesota

CITY           SKY/WX    TMP DP  RH WIND       PRES   REMARKS
MANKATO        CLOUDY    25  14  63 SE7       30.17S WCI  17
NEW ULM        CLOUDY    27  21  80 SE5       30.16S WCI  21
ST JAMES       CLOUDY    28  25  86 SE5       30.17R WCI  23
FAIRMONT       CLOUDY    27  19  74 SE6       30.14S WCI  20
GLENCOE        CLOUDY    20  15  82 CALM      30.17S
FARIBAULT      CLOUDY    21  10  63 CALM      30.19R
OWATONNA       CLOUDY    21  12  68 CALM      30.17R
WASECA         CLEAR     21  16  79 SE3       30.18S
ALBERT LEA     CLOUDY    25  16  68 SE5       30.17R WCI  19
$$
MNZ078>079-086>088-094>096-281100-
   Southeast Minnesota

CITY           SKY/WX    TMP DP  RH WIND       PRES   REMARKS
ROCHESTER      PTCLDY    16   9  74 SE6       30.18R WCI   7
RED WING       CLEAR     18  12  79 CALM      30.21S
STANTON        CLEAR     19  10  68 CALM      30.18S
DODGE CENTER   MOCLDY    19  10  68 SE3       30.17R
WINONA         CLOUDY    21  18  86 NW3       30.23R
AUSTIN         CLOUDY    19  14  79 CALM      30.17S
PRESTON        MOCLDY    18   9  68 CALM      30.19R
$$
ABBREVIATIONS USED IN REMARKS
   TC - TEMPERATURES IN CELSIUS
  WCI - WIND CHILL INDEX
   HX - HEAT INDEX
  VSB - VISIBILITY
$$


USA.gov is the U.S. government's official web portal to all federal, state and local government web resources and services.